Change the Weather History Date:

Sunday, February 17, 2013

  Actual Average Record
Temperature  
Mean Temperature 68 °F -  
Max Temperature 79 °F - - ()
Min Temperature 56 °F - - ()
Cooling Degree Days 2    
Growing Degree Days 18 (Base 50)    
Moisture  
Dew Point 59 °F    
Average Humidity 70    
Maximum Humidity 100    
Minimum Humidity 39    
Precipitation  
Precipitation 0.00 in - - ()
Sea Level Pressure  
Sea Level Pressure 30.11 in    
Wind  
Wind Speed 6 mph ()    
Max Wind Speed 18 mph    
Max Gust Speed -    
Visibility 7.2 miles    
Events Rain    
T = Trace of Precipitation, MM = Missing Value Source: Averaged Metar Reports

Daily Weather History Graph

Daily Weather History Graph

Search for Another Location

Airport or City:

Trip Planner

Search our weather history database for the weather conditions in past years. The results will help you decide how hot, cold, wet, or windy it might be!

Date:

Astronomy

Feb. 17, 2013 Rise Set
Actual Time 6:30 AM AEDT 7:41 PM AEDT
Civil Twilight 6:05 AM AEDT 8:07 PM AEDT
Nautical Twilight 5:34 AM AEDT 8:37 PM AEDT
Astronomical Twilight 5:03 AM AEDT 9:09 PM AEDT
Moon 1:02 PM AEDT (2/17) 11:43 PM AEDT (2/17)
Length of Visible Light 14h 02m
Length of Day
13h 10m
Waxing Crescent, 42% of the Moon is Illuminated
Feb 17
Waxing Crescent
Feb 18
First Quarter
Feb 26
Full
Mar 5
Last Quarter
Mar 12
New

Hourly Weather History & Observations

Time (AEDT) Temp. Dew Point Humidity Pressure Visibility Wind Dir Wind Speed Gust Speed Precip Events Conditions
12:00 AM 68 °F 61 °F 71% 30.15 in - ENE 6.9 mph - -  
12:00 AM 68.0 °F 60.8 °F 78% 30.12 in 6.2 mi ENE 6.9 mph - N/A   Unknown
12:30 AM 68.0 °F 60.8 °F 78% 30.12 in 6.2 mi ENE 5.8 mph - N/A   Unknown
1:00 AM 66.2 °F 60.8 °F 83% 30.12 in 6.2 mi ENE 4.6 mph - N/A   Unknown
1:30 AM 64.4 °F 60.8 °F 88% 30.12 in 6.2 mi NE 4.6 mph - N/A   Unknown
2:00 AM 62 °F 59 °F 85% 30.13 in - Calm Calm - -  
2:00 AM 62.6 °F 59.0 °F 88% 30.12 in 6.2 mi Calm Calm - N/A   Unknown
2:30 AM 62.6 °F 59.0 °F 88% 30.09 in 6.2 mi Calm Calm - N/A   Scattered Clouds
3:00 AM 62 °F 59 °F 85% 30.12 in - NE 3.5 mph - -  
3:00 AM 62.6 °F 59.0 °F 88% 30.09 in 6.2 mi NE 3.5 mph - N/A   Scattered Clouds
3:30 AM 60.8 °F 57.2 °F 88% 30.09 in 6.2 mi Calm Calm - N/A   Unknown
4:00 AM 60.8 °F 57.2 °F 88% 30.09 in 6.2 mi Calm Calm - N/A   Unknown
4:30 AM 59.0 °F 57.2 °F 94% 30.09 in 6.2 mi Calm Calm - N/A   Unknown
5:00 AM 59 °F 57 °F 90% 30.11 in - Calm Calm - -  
5:00 AM 59.0 °F 57.2 °F 94% 30.09 in 6.2 mi Calm Calm - N/A   Unknown
5:30 AM 57.2 °F 55.4 °F 94% 30.09 in 6.2 mi Calm Calm - N/A   Unknown
6:00 AM 57 °F 55 °F 92% 30.12 in 19 mi Calm Calm - -   Partly Cloudy
6:00 AM 57.2 °F 55.4 °F 94% 30.09 in 6.2 mi Calm Calm - N/A   Partly Cloudy
6:30 AM 57.2 °F 57.2 °F 100% 30.12 in 6.2 mi NW 3.5 mph - N/A   Partly Cloudy
7:00 AM 59.0 °F 57.2 °F 94% 30.12 in 6.2 mi WNW 3.5 mph - N/A   Partly Cloudy
7:30 AM 62.6 °F 60.8 °F 94% 30.12 in 6.2 mi WNW 5.8 mph - N/A   Partly Cloudy
8:00 AM 64 °F 62 °F 91% 30.15 in - NW 5.8 mph - -  
8:00 AM 64.4 °F 62.6 °F 94% 30.12 in 6.2 mi NW 5.8 mph - N/A   Partly Cloudy
8:30 AM 66.2 °F 62.6 °F 88% 30.15 in 6.2 mi NW 5.8 mph - N/A   Partly Cloudy
9:00 AM 71 °F 60 °F 61% 30.17 in 19 mi WNW 4.6 mph - -   Partly Cloudy
9:00 AM 71.6 °F 60.8 °F 69% 30.15 in 6.2 mi WNW 4.6 mph - N/A   Unknown
9:30 AM 73.4 °F 57.2 °F 57% 30.15 in 6.2 mi SSE 3.5 mph - N/A   Partly Cloudy
10:00 AM 75.2 °F 57.2 °F 53% 30.15 in 6.2 mi SSE 6.9 mph - N/A   Scattered Clouds
10:30 AM 77.0 °F 57.2 °F 50% 30.15 in 6.2 mi South 9.2 mph - N/A   Scattered Clouds
11:00 AM 78 °F 58 °F 39% 30.16 in - SE 9.2 mph - -  
11:00 AM 77.0 °F 57.2 °F 50% 30.15 in 6.2 mi SE 9.2 mph - N/A   Scattered Clouds
11:30 AM 77.0 °F 59.0 °F 54% 30.15 in 6.2 mi SE 10.4 mph - N/A   Scattered Clouds
12:00 PM 77 °F 60 °F 45% 30.15 in 19 mi South 12.7 mph - -   Partly Cloudy
12:00 PM 77.0 °F 59.0 °F 54% 30.15 in 6.2 mi South 12.7 mph - N/A   Mostly Cloudy
1:00 PM 77.0 °F 60.8 °F 57% 30.12 in 6.2 mi SSE 12.7 mph - N/A   Scattered Clouds
1:30 PM 77.0 °F 60.8 °F 57% 30.12 in 6.2 mi ESE 16.1 mph - N/A   Partly Cloudy
2:00 PM 79 °F 62 °F 47% 30.13 in - SE 15.0 mph - -  
2:00 PM 78.8 °F 62.6 °F 57% 30.12 in 6.2 mi SE 15.0 mph - N/A   Scattered Clouds
2:30 PM 75.2 °F 60.8 °F 61% 30.12 in 6.2 mi ESE 16.1 mph - N/A   Mostly Cloudy
3:00 PM 77 °F 62 °F 50% 30.12 in 19 mi SE 17.3 mph - - Rain Light Rain Showers
3:00 PM 77.0 °F 62.6 °F 61% 30.12 in 6.2 mi SE 17.3 mph - N/A Rain Light Rain Showers
3:30 PM 77.0 °F 59.0 °F 54% 30.09 in 6.2 mi SE 18.4 mph - N/A   Scattered Clouds
4:00 PM 78.8 °F 59.0 °F 51% 30.09 in 6.2 mi ESE 18.4 mph - N/A   Scattered Clouds
4:30 PM 75.2 °F 59.0 °F 57% 30.09 in 6.2 mi ESE 15.0 mph - N/A   Scattered Clouds
5:00 PM 76 °F 58 °F 43% 30.11 in - ESE 16.1 mph - -  
5:00 PM 77.0 °F 57.2 °F 50% 30.09 in 6.2 mi ESE 16.1 mph - N/A   Scattered Clouds
5:30 PM 75.2 °F 57.2 °F 53% 30.09 in 6.2 mi ESE 13.8 mph - N/A   Unknown
6:00 PM 75 °F 57 °F 43% 30.10 in - ESE 12.7 mph - -  
6:00 PM 75.2 °F 57.2 °F 53% 30.09 in 6.2 mi ESE 12.7 mph - N/A   Unknown
6:30 PM 75.2 °F 55.4 °F 50% 30.09 in 6.2 mi ESE 12.7 mph - N/A   Unknown
7:00 PM 73.4 °F 57.2 °F 57% 30.09 in 6.2 mi ESE 10.4 mph - N/A   Unknown
7:30 PM 73.4 °F 57.2 °F 57% 30.09 in 6.2 mi East 10.4 mph - N/A   Unknown
8:00 PM 72 °F 58 °F 51% 30.10 in - East 8.1 mph - -  
8:00 PM 71.6 °F 57.2 °F 60% 30.09 in 6.2 mi East 8.1 mph - N/A   Unknown
8:30 PM 69.8 °F 59.0 °F 68% 30.09 in 6.2 mi ENE 5.8 mph - N/A   Unknown
9:00 PM 68 °F 59 °F 66% 30.11 in - ENE 4.6 mph - -  
9:00 PM 68.0 °F 59.0 °F 73% 30.09 in 6.2 mi ENE 4.6 mph - N/A   Unknown
9:30 PM 68.0 °F 59.0 °F 73% 30.09 in 6.2 mi NE 4.6 mph - N/A   Unknown
10:00 PM 66.2 °F 60.8 °F 83% 30.12 in 6.2 mi NE 3.5 mph - N/A   Scattered Clouds
10:30 PM 68.0 °F 60.8 °F 78% 30.12 in 6.2 mi ENE 5.8 mph - N/A Rain Light Rain Showers
11:00 PM 68 °F 61 °F 71% 30.12 in - NE 5.8 mph - -  
11:00 PM 68.0 °F 60.8 °F 78% 30.09 in 6.2 mi NE 5.8 mph - N/A   Scattered Clouds
11:30 PM 66.2 °F 60.8 °F 83% 30.09 in 6.2 mi NE 4.6 mph - N/A   Unknown